{"data":{"norad_id":67454,"epoch":"2026-09-19T12:32:49.875936Z","epoch_age_seconds":156717,"freshness":"FRESH","line1":"1 67454U 26008K   26262.52279949  .00013862  00000+0  51226-3 0  9995","line2":"2 67454  42.9993 190.8169 0000536 317.0263  43.0547 15.27583345 39215","mean_motion":15.27583345,"eccentricity":5.36e-5,"inclination_deg":42.9993,"raan_deg":190.8169,"arg_perigee_deg":317.0263,"mean_anomaly_deg":43.0547,"bstar":0.00051226,"rev_number":3921,"period_min":94.26654229462,"perigee_km":482.67132088669,"apogee_km":483.40683896246,"semimajor_km":6861.1760799246,"source":"CELESTRAK","updated_at":"2026-09-20T09:00:43.548496Z"}}